Location: Wellington
(41.3000°S, 174.8000°E)
Time: 23:40:21
(UTC+13:00)

ISS - Visible Passes

Search period start: 29 November 2022 00:00
Search period end: 09 December 2022 00:00
Orbit: 411 x 420 km, 51.6° (Epoch: 29 November)

Date Brightness Start Highest point End Pass type
(mag) Time Alt. Az. Time Alt. Az. Time Alt. Az.
29 Nov -1.0 02:39:30 12° E 02:39:30 12° E 02:40:01 10° E visible
29 Nov -3.4 04:12:22 25° WNW 04:14:09 60° SSW 04:17:34 10° SE visible
30 Nov -3.9 03:25:23 80° N 03:25:27 82° NE 03:28:54 10° SE visible
30 Nov -1.6 04:59:47 10° WSW 05:02:31 22° SSW 05:05:18 10° SE visible
01 Dec -1.9 02:38:18 26° E 02:38:18 26° E 02:40:06 10° ESE visible
01 Dec -2.1 04:11:10 13° W 04:13:39 29° SSW 04:16:42 10° SE visible
02 Dec -2.7 03:24:01 35° WSW 03:24:47 41° SSW 03:28:04 10° SE visible
02 Dec -1.0 04:59:58 10° SW 05:02:12 16° S 05:04:27 10° SSE visible
03 Dec -2.7 02:36:47 45° SSE 02:36:47 45° SSE 02:39:22 10° SE visible
03 Dec -1.2 04:10:42 10° WSW 04:13:12 19° SSW 04:15:43 10° SSE visible
04 Dec -1.3 01:49:29 19° ESE 01:49:29 19° ESE 01:50:35 10° ESE visible
04 Dec -1.5 03:22:20 15° WSW 03:24:11 23° SSW 03:27:00 10° SE visible
04 Dec -0.9 04:59:50 10° SW 05:01:51 15° S 05:03:52 10° SE visible
05 Dec -2.1 02:34:56 30° SW 02:35:12 30° SSW 02:38:17 10° SE visible
05 Dec -0.8 04:10:40 10° SW 04:12:44 15° S 04:14:49 10° SSE visible
06 Dec -1.8 01:47:27 30° SSE 01:47:27 30° SSE 01:49:32 10° SE visible
06 Dec -0.9 03:21:20 10° SW 03:23:36 16° S 03:25:53 10° SSE visible
06 Dec -0.8 04:59:04 10° SSW 05:01:21 16° S 05:03:38 10° SE visible
07 Dec -1.1 00:59:51 17° SE 00:59:51 17° SE 01:00:43 10° SE visible
07 Dec -1.1 02:32:41 14° SW 02:34:29 19° SSW 02:37:03 10° SSE visible
07 Dec -0.7 04:10:07 10° SSW 04:12:12 15° S 04:14:17 10° SE visible
08 Dec -1.5 01:44:55 23° SW 01:45:22 24° SSW 01:48:14 10° SE visible
08 Dec -0.6 03:21:01 10° SW 03:23:01 14° S 03:25:00 10° SE visible
08 Dec -1.1 04:57:49 10° SW 05:00:39 23° SSE 05:03:28 10° ESE visible
